{"data":{"norad_id":67228,"intl_designator":"2025-307A","name":"QPS-SAR-15 (SUKUNAMI-I)","alt_names":[],"object_type":"PAYLOAD","status":"ACTIVE","operator":null,"country":"JPN","launch_date":"2025-12-21","launch_site_code":"RLLB","launch_vehicle":null,"mission":null,"orbit_class":"UNKNOWN","rcs_meters":null,"size_class":null,"mass_kg":null,"dimensions":null,"purposes":[],"wikipedia_slug":null,"has_3d_model":false,"image_url":null,"decayed_at":null,"tle_current":{"epoch":"2026-05-24T23:36:03.572352Z","epoch_age_seconds":72562,"freshness":"FRESH","line1":"1 67228U 25307A   26144.98337468  .00003782  00000+0  32338-3 0  9998","line2":"2 67228  42.0081 355.3023 0010427 211.1453 148.8755 14.98768799 23207","mean_motion":14.98768799,"eccentricity":0.0010427,"inclination_deg":42.0081,"raan_deg":355.3023,"arg_perigee_deg":211.1453,"mean_anomaly_deg":148.8755,"bstar":0.00032338,"rev_number":2320,"period_min":96.078861593649,"perigee_km":563.45372072838,"apogee_km":577.94482389066,"semimajor_km":6948.8362723095,"source":"CELESTRAK","updated_at":"2026-05-25T13:38:06.820355Z"}}}